sat.trackr.live / text

‹ back to catalog

HULIANWANG DIGUI-143

NORAD 67441 · 2026-007G

PAYLOAD ACTIVE UNKNOWN

§ Identity

Operator
Country
PRC
Launch date
2026-01-13
Launch site
WSC
Launch vehicle
Mass (kg)
RCS (m²)

External: N2YO · Heavens-Above · Gunter

§ Orbital elements

Epoch: 2026-05-25T01:12:57.360960Z

Period
108.33 min
Inclination
50.0080°
Eccentricity
0.0000743
Mean motion
13.29323909 rev/d
Perigee alt
1,148.8 km
Apogee alt
1,149.9 km
Semi-major
7,527.5 km
B*
9.0836e-5
RAAN
168.6309°
Arg perigee
277.0027°
Mean anomaly
83.0760°
Rev number
1,771

§ Raw data

HULIANWANG DIGUI-1431 67441U 26007G   26145.05066390 -.00000082  00000+0  90836-4 0  99942 67441  50.0080 168.6309 0000743 277.0027  83.0760 13.29323909 17710

JSON: /api/v1/satellites/67441 · /tle

For live sub-satellite position, see the globe view (requires WebGL).

§ Visibility from observer

Set your observer location to see the next 7 days of passes ≥ 10°. The values pass through the URL so the page stays shareable.

No JS? Fill the form by hand. The geolocation button needs JavaScript.